Location: Unspecified
(0.0000°N, 0.0000°E)
Time: 08:53:33
(UTC+00:00)

Explorer 11/Cluster Stage 4 - Pass Details

Date: 21 July 2020
Orbit: 467 x 1259 km, 28.8° (Epoch: 03 August)

Event Time Altitude Azimuth Distance (km) Brightness Sun altitude
Rises 02:18:17 0° 226° (SW) 3,364 - -51.9°
Reaches altitude 10° 02:21:17 10° 217° (SW) 2,279 - -51.2°
Maximum altitude 02:26:02 33° 153° (SSE) 1,085 - -50.2°
Drops below altitude 10° 02:29:56 10° 88° (E) 1,869 - -49.4°
Sets 02:32:10 0° 78° (ENE) 2,673 - -49.0°
